カタログに戻る

SAPPHIRE

運用中科学LEO
NORAD 26932·PAYLOAD·🇺🇸 United States

打ち上げ Sep 30, 2001 から Kodiak Launch Complex

Loading…

次のパス (今後24時間)

TLE

最新Source: Space-Track

元期: Sep 14, 2026, 07:28 UTC

1 26932U 01043D   26257.31117861  .00000019  00000-0  38387-4 0  9993
2 26932  67.0573  22.8419 0004266 260.4543  99.6077 14.31313658303144

AllMySatでSAPPHIREをリアルタイム追跡

Download on the App Store